Skip Page Navigation
NASA JPL Caltech
NASA Logo - Jet Propulsion Laboratory + View the NASA Portal
+ Near-Earth Object (NEO) Program
Search JPL
JPL Home Earth Solar System Stars & Galaxies Technology
JPL Solar System Dynamics
BODIES ORBITS EPHEMERIDES TOOLS PHYSICAL DATA DISCOVERY FAQ SITE MAP
JPL Small-Body Database Browser
Search: [ help ]  
10547 Yosakoi (1992 JF)
Classification: Main-belt Asteroid          SPK-ID: 2010547
Ephemeris | Orbit Diagram | Orbital Elements | Physical Parameters | Discovery Circumstances ]

[ show orbit diagram ]
Orbital Elements at Epoch 2457600.5 (2016-Jul-31.0) TDB
Reference: JPL 10 (heliocentric ecliptic J2000)
 Element Value Uncertainty (1-sigma)   Units 
e .2163012063174331 4.119e-08  
a 2.294159080821309 1.2422e-08 au
q 1.797929704155566 9.8116e-08 au
i 4.685939416535872 5.3672e-06 deg
node 56.17320192444785 6.0347e-05 deg
peri 235.472138947629 6.2614e-05 deg
M 306.3537083688526 1.9686e-05 deg
tp 2457789.634574285885
(2017-Feb-05.13457429)
7.0503e-05 JED
period 1269.210688617032
3.47
1.0309e-05
2.822e-08
d
yr
n .2836408511436869 2.3038e-09 deg/d
Q 2.790388457487052 1.5109e-08 au
  Orbit Determination Parameters
   # obs. used (total)      1234  
   data-arc span      21535 days (58.96 yr)  
   first obs. used      1957-04-28  
   last obs. used      2016-04-13  
   planetary ephem.      DE431  
   SB-pert. ephem.      SB431-BIG16  
   condition code      0  
   fit RMS      .4685  
   data source      ORB  
   producer      Otto Matic  
   solution date      2016-Apr-25 13:08:58  

Additional Information
 Earth MOID = .78657 au 
 Jupiter MOID = 2.39749 au 
 T_jup = 3.560 
[ show covariance matrix ]

Ephemeris | Orbit Diagram | Orbital Elements | Physical Parameters | Discovery Circumstances ]

Physical Parameter Table
Parameter Symbol Value Units Sigma Reference Notes
absolute magnitude H 13.9 mag n/a MPO332918  

10547 Yosakoi           Discovered 1992 May 2 by T. Seki at Geisei.
Yosakoi is a popular Japanese folk song, loved and sung by the people of Kochi prefecture since the mid-nineteenth century. The song tells of forbidden love between a monk and a girl.
NOTE: some special characters may not display properly (any characters within {} are an attempt to place the proper accent above a character)
Reference: 20070402/MPCPages.arcLast Updated: 2007-07-05

Alternate Designations
 1992 JF = 1971 FH1 = 1985 GF1 = 1989 RT2 
Ephemeris | Orbit Diagram | Orbital Elements | Physical Parameters | Discovery Circumstances ]
ABOUT SSD CREDITS/AWARDS PRIVACY/COPYRIGHT GLOSSARY LINKS
FirstGov 2016-Apr-30 07:09 UT
(server date/time)  
NASA Home Page
Site Manager:   Ryan S. Park
Webmaster  Alan B. Chamberlin